Regional Weather Roundup
Issued by NWS

Home | Current Version | Previous Version | Graphics & Text | Print | Product List | Glossary On
Versions: 1 2 3 4 5 6 7 8 9 10 11 12 13 14 15 16 17 18 19 20 21 22 23 24 25 26 27 28 29 30 31 32 33 34 35 36 37 38 39 40 41 42 43 44 45 46 47 48 49 50
000
ASUS43 KFSD 230110
RWRSD

WEATHER ROUNDUP FOR SOUTH DAKOTA
NATIONAL WEATHER SERVICE SIOUX FALLS SD
800 PM CDT THU JUN 22 2017

NOTE: "FAIR" INDICATES FEW OR NO CLOUDS BELOW 12,000 FEET WITH NO
SIGNIFICANT WEATHER AND/OR OBSTRUCTIONS TO VISIBILITY.


SDZ001>005-009-010-012>017-230200-
NORTHWEST AND NORTH CENTRAL SOUTH DAKOTA

CITY           SKY/WX    TMP DP  RH WIND       PRES   REMARKS
BUFFALO          N/A     71  29  21 NW24G33   29.89S
FAITH            N/A     71  34  25 NW23G33   29.92R
MOBRIDGE       CLOUDY    75  33  21 NW16      29.82R
$$

SDZ012>016-024>037-041>051-057-063-072>074-230200-
SOUTHWEST AND SOUTH CENTRAL SOUTH DAKOTA

CITY           SKY/WX    TMP DP  RH WIND       PRES   REMARKS
RAPID CTY ARPT SUNNY     74  35  24 N21G29    29.93R
PIERRE         SUNNY     76  45  33 NW9       29.83R
CUSTER         MOSUNNY   64  37  36 SE7       30.05R
ELLSWORTH AFB  SUNNY     75  35  23 N20G26    29.94R
PHILIP           N/A     79  35  20 N15       29.88R
PINE RIDGE     SUNNY     75  42  30 N15       29.94R
SPEARFISH      FAIR      66  37  34 N16       30.02R
WINNER         FAIR      79  44  28 N10       29.87R
$$

SDZ004>011-016>023-039-040-230200-
NORTHEAST SOUTH DAKOTA

CITY           SKY/WX    TMP DP  RH WIND       PRES   REMARKS
ABERDEEN       SUNNY     76  39  26 NW13G18   29.79R
WATERTOWN      CLOUDY    70  57  63 S6        29.80R
BROOKINGS      SUNNY     70  53  54 N6        29.82
SISSETON         N/A     76  42  29 NW10      29.76R
$$

SDZ017-020-022-023-036>040-048>070-230200-
SOUTHEAST SOUTH DAKOTA

CITY           SKY/WX    TMP DP  RH WIND       PRES   REMARKS
SIOUX FALLS    PTSUNNY   70  52  52 N10       29.80R
HURON          MOSUNNY   74  52  46 SW5       29.81R
CHAMBERLAIN    SUNNY     78  49  36 N3        29.85R
MITCHELL       MOSUNNY   75  46  35 N9        29.83R
YANKTON        MOSUNNY   74  64  71 N10       29.79R
$$

ABBREVIATIONS USED IN REMARKS
   TC - TEMPERATURE IN CELSIUS
  WCI - WIND CHILL INDEX
   HX - HEAT INDEX
  VSB - VISIBILITY




USA.gov is the U.S. government's official web portal to all federal, state and local government web resources and services.